Location: ??????????
(54.7560°N, 39.1389°E)
Time: 04:40:14
(UTC+00:00)

Cosmos 2237 Rocket - Pass Details

Date: 19 May 2025
Orbit: 834 x 849 km, 71.0° (Epoch: 19 June)

Event Time Altitude Azimuth Distance (km) Brightness Sun altitude
Rises 23:42:15 0° 325° (NW) 3,402 5.6 -9.3°
Reaches altitude 10° 23:44:46 10° 320° (NW) 2,465 4.8 -9.1°
Maximum altitude 23:50:10 48° 247° (WSW) 1,094 2.5 -8.7°
Drops below altitude 10° 23:55:33 10° 175° (S) 2,459 4.2 -8.2°
Sets 23:58:03 0° 170° (S) 3,392 4.9 -8.0°
